Wind_Speed
14 15 14 14 15 15 15 15 14 13 12 11 11 11 11 10 10 10 10 9 9 9 8 7 7 7 6 6 5 4 4 4 3 3 3 3 3 3 3 3 3 4 3 3 4 4 5 5 6
15 14 13 13 15 15 16 15 14 13 13 12 11 10 10 9 9 9 9 9 10 9 8 7 7 6 6 5 4 4 3 3 2 2 2 2 2 2 3 3 3 3 3 3 4 4 5 5 6
15 13 13 14 15 15 15 15 14 14 14 13 11 10 10 9 9 9 9 9 10 9 9 8 8 7 6 4 4 4 3 2 1 1 1 1 1 2 2 3 3 3 3 3 3 4 5 5 5
13 12 12 15 16 16 16 16 15 14 13 12 12 12 11 10 10 9 9 9 10 10 9 9 8 8 6 5 4 4 3 2 1 1 0 1 1 1 2 3 4 3 3 3 4 4 5 6 6
13 12 13 14 15 16 17 17 15 14 13 13 12 12 12 12 10 10 10 10 10 10 10 9 8 8 7 6 5 4 3 2 1 1 0 1 1 2 3 3 3 3 3 4 4 4 5 6 6
14 14 14 15 15 15 16 16 15 14 13 13 12 12 12 12 11 10 11 11 11 10 10 9 8 7 6 6 5 4 3 2 1 1 0 1 2 3 4 4 4 4 4 4 5 6 5 6 6
13 14 15 15 15 14 15 14 14 13 13 13 13 13 12 12 12 11 11 11 11 10 10 9 9 7 6 5 5 4 4 3 2 1 1 1 2 3 4 5 5 5 5 6 6 7 6 6 6
13 13 14 14 14 14 14 13 13 12 13 13 13 13 13 13 13 12 12 11 10 9 9 9 8 7 6 5 5 5 4 4 3 3 2 3 4 4 4 5 5 5 6 6 7 7 7 6 6
13 12 12 13 14 14 13 12 12 12 12 12 13 13 13 13 13 12 12 12 10 9 8 8 9 8 6 6 5 5 5 4 4 4 4 4 5 5 5 5 6 6 7 7 8 8 8 7 7
11 10 11 11 13 14 13 12 12 11 12 12 12 13 13 12 11 11 12 12 11 10 9 8 9 8 7 6 5 5 5 5 5 5 4 4 5 5 5 5 6 6 6 7 8 8 7 7 8
9 9 9 10 11 12 12 12 12 11 11 11 11 11 12 12 10 10 10 10 10 11 10 10 9 8 6 6 5 5 5 6 5 5 4 4 4 5 5 6 5 6 6 7 7 7 7 8 8
9 9 9 10 10 11 11 11 11 11 12 11 11 11 11 11 10 9 9 9 9 10 10 10 9 8 7 7 6 6 6 7 6 5 5 5 5 5 5 5 5 5 6 6 7 7 7 8 8
10 9 9 9 10 11 11 11 11 11 12 11 11 10 10 10 10 9 9 9 9 9 9 9 9 9 8 8 7 7 7 7 6 5 5 5 5 5 5 5 5 5 6 6 7 7 7 8 8
10 8 7 8 9 10 12 12 10 11 11 11 10 10 10 11 11 11 10 10 10 10 9 10 9 9 8 8 8 8 7 7 7 6 6 5 5 5 6 6 6 6 6 7 7 8 8 9 9
9 9 8 7 8 8 10 10 11 11 11 10 11 11 10 10 11 11 11 11 11 10 10 10 10 9 8 8 8 7 7 7 7 7 7 6 5 5 6 7 7 8 8 8 8 9 9 9 10
8 7 7 8 9 8 9 10 11 11 11 11 11 11 11 10 10 10 10 11 11 10 9 10 10 9 9 9 9 8 8 7 7 7 8 7 6 6 7 7 8 9 9 10 10 10 10 10 10
6 7 7 8 10 11 9 10 11 11 11 11 12 11 11 11 10 10 10 10 10 10 9 10 9 10 9 9 9 9 8 8 8 8 8 8 7 7 7 8 8 9 9 10 10 11 11 11 11
4 5 7 8 9 11 12 11 11 11 10 10 12 11 11 11 11 11 10 10 10 9 9 10 10 10 10 10 9 9 8 8 8 9 9 9 8 7 8 8 9 10 10 10 11 11 11 11 11
3 5 6 7 7 10 12 12 11 11 10 10 11 10 10 10 10 11 10 10 10 9 9 10 9 9 10 10 9 9 8 9 9 9 10 9 8 8 8 8 9 10 10 11 11 11 11 11 11
2 4 5 7 8 10 12 12 12 11 10 10 10 9 9 9 9 10 10 10 10 10 10 9 9 9 10 9 9 9 9 9 10 10 10 9 9 9 9 8 9 10 10 11 12 11 11 12 13
4 5 6 7 8 8 11 12 12 12 10 10 11 9 9 10 10 9 9 10 10 10 10 10 10 10 10 10 10 10 10 10 10 10 10 10 10 9 9 9 9 10 10 12 12 12 12 12 13
6 5 6 8 8 10 12 12 11 10 12 11 10 10 9 9 10 10 9 9 10 10 11 11 10 10 10 10 10 10 10 10 10 10 10 10 10 10 10 10 10 10 11 12 12 11 12 12 12
5 6 7 8 9 9 11 12 11 10 11 11 10 10 10 10 10 10 10 10 11 11 11 11 10 10 10 10 10 10 10 10 11 11 11 11 11 10 11 10 10 11 11 12 12 12 12 12 13
7 8 10 10 10 10 10 10 10 11 11 11 10 9 9 10 11 11 11 11 11 11 10 10 10 11 11 11 11 10 11 11 12 12 12 12 12 12 11 11 11 11 12 12 12 12 13 13 14
10 9 11 12 11 11 10 10 9 9 11 12 10 10 8 9 11 11 11 11 11 11 10 10 11 11 12 12 11 11 12 12 13 13 13 13 14 13 13 12 12 12 13 12 12 12 13 13 14
10 10 11 13 12 12 11 10 9 9 10 10 10 10 10 11 11 11 12 12 12 12 12 12 12 12 13 13 13 13 13 14 14 14 14 14 14 14 13 13 13 13 13 14 14 14 14 14 14
11 11 11 13 14 14 13 11 10 10 11 11 11 11 11 11 11 12 11 11 12 13 13 13 12 13 13 14 14 14 14 14 15 15 16 15 14 14 14 14 14 14 14 14 14 15 15 14 15
12 12 12 13 14 15 14 12 13 13 12 13 12 12 12 11 11 12 12 13 13 14 14 14 13 14 14 14 15 15 14 14 15 15 15 15 15 15 15 14 14 14 14 14 15 15 15 15 15
14 14 14 15 15 16 16 15 13 14 15 15 15 14 12 12 11 12 13 14 14 14 15 15 15 14 15 15 16 16 15 16 16 15 15 15 15 15 15 15 15 15 15 15 15 15 15 15 15
16 15 16 17 17 18 19 18 15 16 15 15 15 14 14 14 13 12 14 15 15 15 15 15 15 15 16 16 16 17 17 17 16 15 15 15 16 15 15 15 15 16 16 16 16 16 16 15 15
Wind_Direction
82 77 70 66 64 63 61 59 55 56 53 49 44 44 48 50 53 56 56 56 53 54 54 59 61 64 67 67 67 71 77 90 95 107 125 133 143 159 170 190 195 196 185 182 186 187 192 193 197
78 71 67 64 61 58 55 54 55 56 54 51 47 46 47 50 52 52 53 54 55 55 58 59 63 65 65 65 64 67 71 81 95 107 125 140 160 178 193 207 205 199 196 202 198 194 201 205 206
77 70 66 64 58 54 49 47 50 51 53 51 49 50 48 51 53 50 50 53 54 54 57 59 61 60 58 59 60 59 62 63 85 108 146 161 181 204 206 208 208 206 215 222 212 208 209 206 212
77 75 68 60 56 54 49 48 49 49 49 49 49 49 49 50 51 49 49 51 53 54 54 54 58 59 56 59 63 61 67 73 80 88 130 188 211 222 217 216 217 219 227 232 223 219 221 215 216
78 71 63 57 53 51 51 50 47 46 44 46 48 47 47 50 51 49 50 52 51 48 47 50 56 60 61 61 58 54 57 67 78 58 268 275 263 247 230 233 231 233 235 235 227 235 233 225 223
78 70 62 57 54 50 47 48 47 43 41 43 47 45 45 49 53 53 53 54 52 47 44 48 47 52 57 56 53 49 40 25 24 21 326 262 257 255 254 254 249 239 234 235 233 238 234 227 230
76 69 59 54 52 45 39 41 41 40 43 44 46 44 42 48 51 50 51 51 50 48 44 43 41 36 38 43 41 35 20 10 356 328 300 287 279 270 269 275 267 251 245 240 240 240 235 229 234
76 63 55 49 47 42 37 37 39 41 44 43 45 46 44 47 48 45 47 45 45 45 39 37 36 34 30 25 24 22 13 3 350 322 300 290 288 285 280 277 269 260 253 247 242 241 238 242 241
75 63 53 47 47 44 38 33 36 38 40 43 45 46 48 48 47 45 42 41 41 40 38 36 34 31 28 24 13 6 2 355 341 319 301 288 287 287 281 276 267 262 254 249 243 242 243 243 239
72 63 54 44 44 43 40 34 32 32 34 40 44 46 48 48 46 41 37 36 36 34 33 34 33 29 24 20 14 356 349 347 340 324 306 295 287 286 279 274 268 263 260 251 244 245 246 242 239
65 54 43 30 34 39 38 35 33 32 33 38 42 45 43 41 41 41 38 35 33 30 25 23 23 23 19 14 12 359 348 348 343 333 318 303 291 284 283 282 274 267 261 251 247 252 252 249 243
63 50 40 30 27 33 33 30 32 34 27 34 39 40 37 33 31 32 34 34 32 27 23 21 16 14 12 5 2 352 348 345 344 340 329 317 306 290 283 282 282 270 262 263 259 255 255 253 246
57 51 38 35 35 35 33 27 28 31 27 34 32 29 27 25 22 21 23 25 24 22 19 17 16 13 9 4 357 350 344 342 344 338 325 318 311 301 290 287 284 279 279 273 262 259 262 258 258
56 49 43 37 37 33 30 26 25 24 21 27 26 24 19 18 18 17 16 15 15 15 14 11 10 10 8 5 0 356 348 346 344 342 331 318 311 298 289 286 289 287 284 277 269 266 265 266 261
58 53 44 38 38 33 34 29 25 24 23 20 19 17 17 16 15 15 11 10 9 6 5 5 4 4 4 3 358 355 355 354 351 349 338 322 309 299 290 289 288 284 279 275 272 268 263 264 261
57 50 52 35 25 28 31 32 25 19 21 19 20 18 20 15 11 11 9 6 4 5 5 3 2 1 359 357 356 354 352 350 346 344 337 326 313 302 294 291 290 285 277 275 275 271 266 263 259
48 27 34 28 17 17 21 30 24 17 16 18 20 18 17 13 11 10 7 4 5 9 6 0 360 359 357 355 352 350 351 350 345 342 336 328 319 305 297 292 289 286 283 279 277 274 269 262 257
42 12 16 16 16 10 8 14 18 15 10 17 19 16 15 13 12 9 6 6 7 8 6 1 359 357 355 352 350 347 351 353 351 348 340 331 321 310 300 294 292 290 288 285 280 273 270 263 258
346 355 0 359 355 355 356 359 2 6 13 15 12 11 12 13 12 13 9 8 7 8 7 5 4 359 356 355 357 355 355 354 350 345 340 335 326 316 307 301 295 291 290 287 285 277 268 263 259
328 339 340 343 344 343 344 348 353 1 10 9 7 8 8 9 8 9 11 8 6 7 7 5 4 0 358 355 353 354 352 350 348 344 339 333 325 318 314 311 304 295 290 289 289 283 271 267 264
294 300 311 318 329 334 330 332 343 360 2 5 3 1 5 7 4 3 3 2 0 360 0 1 3 2 360 356 352 349 345 343 341 337 335 332 325 321 319 316 310 304 298 290 288 279 274 271 268
258 278 300 314 312 317 322 322 336 345 347 351 355 354 354 357 0 359 355 353 354 355 357 355 354 354 352 351 350 346 342 337 336 336 334 331 327 321 320 317 314 308 305 297 291 281 278 277 271
247 268 285 300 300 304 318 319 329 332 344 351 351 350 350 354 356 353 349 351 348 351 352 349 347 347 344 342 341 338 337 335 335 333 331 331 329 322 318 314 314 314 311 304 295 284 280 276 273
248 264 270 275 283 294 310 320 327 337 348 349 344 341 344 351 351 349 348 346 344 345 344 344 342 340 340 339 338 334 332 330 329 328 326 324 323 321 319 317 316 313 311 307 301 288 283 277 277
238 255 266 270 277 293 300 310 322 336 339 344 345 345 347 345 345 341 342 342 340 338 337 338 337 333 333 334 334 329 325 324 322 321 320 319 318 317 316 315 313 311 311 309 305 297 288 281 279
241 259 272 275 282 287 294 309 316 320 325 336 341 345 348 345 341 339 338 338 337 337 339 336 335 334 333 331 329 328 326 324 321 319 317 315 314 315 314 312 311 310 309 307 303 300 293 289 283
246 255 272 274 277 285 295 308 310 309 317 325 336 338 334 340 339 338 339 342 339 338 339 339 338 336 334 334 331 328 325 323 322 321 320 318 317 316 315 312 309 306 306 307 305 302 297 289 284
244 251 260 270 275 281 286 295 305 308 310 320 325 331 334 334 335 334 336 338 336 336 335 337 336 338 338 335 331 328 326 326 326 324 325 323 321 320 318 316 313 308 306 305 305 307 304 297 290
241 247 254 262 271 277 282 288 298 305 313 312 315 323 323 328 328 329 333 333 333 333 333 333 333 335 336 335 334 330 330 328 325 323 322 322 319 318 318 316 313 311 307 305 305 305 305 303 296
247 252 259 265 271 274 279 284 290 297 304 307 316 322 324 320 318 322 324 326 328 330 331 330 331 332 332 333 332 330 327 326 323 321 320 319 317 315 314 313 311 310 309 307 307 308 304 302 298
Height
5903 5902 5902 5903 5902 5901 5900 5900 5899 5897 5897 5896 5895 5895 5894 5894 5894 5895 5892 5890 5889 5888 5887 5887 5887 5887 5886 5886 5886 5886 5886 5887 5887 5887 5887 5888 5888 5888 5889 5889 5889 5889 5889 5889 5889 5889 5890 5890 5890
5905 5905 5905 5905 5903 5902 5902 5901 5901 5900 5899 5897 5896 5896 5895 5894 5894 5893 5892 5890 5889 5889 5888 5888 5888 5887 5887 5887 5887 5887 5887 5887 5887 5888 5888 5888 5888 5889 5889 5889 5889 5889 5889 5889 5889 5889 5889 5890 5890
5907 5907 5907 5906 5905 5904 5904 5903 5902 5901 5900 5899 5898 5897 5897 5896 5895 5894 5892 5891 5890 5890 5889 5889 5888 5888 5888 5888 5888 5888 5888 5888 5888 5888 5888 5888 5888 5888 5889 5889 5889 5889 5888 5888 5888 5889 5889 5889 5889
5908 5908 5908 5907 5906 5905 5905 5904 5903 5903 5902 5901 5900 5899 5897 5897 5895 5894 5893 5892 5891 5891 5890 5889 5889 5889 5889 5889 5889 5888 5888 5888 5888 5888 5888 5888 5888 5888 5888 5888 5888 5888 5888 5888 5888 5888 5888 5888 5889
5910 5910 5909 5908 5907 5906 5906 5906 5905 5904 5903 5902 5901 5900 5898 5898 5897 5895 5894 5893 5893 5892 5891 5890 5890 5890 5889 5889 5889 5889 5888 5888 5888 5888 5888 5888 5888 5888 5888 5888 5888 5888 5888 5887 5887 5888 5888 5888 5888
5912 5911 5910 5909 5909 5908 5908 5908 5907 5906 5905 5904 5902 5901 5899 5899 5898 5897 5895 5895 5894 5893 5892 5892 5891 5890 5890 5890 5890 5889 5889 5888 5888 5888 5888 5888 5888 5887 5887 5887 5887 5887 5887 5887 5887 5887 5887 5887 5887
5913 5912 5911 5911 5911 5910 5910 5909 5909 5907 5906 5905 5904 5902 5900 5899 5899 5898 5897 5896 5895 5894 5893 5892 5891 5891 5890 5890 5890 5889 5889 5888 5888 5888 5887 5887 5887 5887 5886 5886 5886 5886 5886 5886 5886 5886 5886 5886 5886
5914 5914 5913 5913 5912 5912 5912 5911 5910 5908 5907 5907 5905 5903 5902 5901 5900 5899 5898 5897 5896 5895 5894 5893 5892 5891 5890 5889 5889 5889 5888 5888 5887 5887 5887 5886 5886 5886 5885 5885 5885 5885 5885 5885 5884 5884 5885 5884 5884
5915 5916 5914 5914 5914 5913 5912 5912 5911 5909 5908 5907 5906 5905 5904 5902 5901 5900 5899 5898 5897 5896 5895 5894 5893 5891 5890 5890 5889 5888 5888 5887 5886 5886 5886 5885 5885 5884 5884 5884 5883 5883 5883 5883 5883 5883 5883 5883 5883
5916 5916 5916 5916 5915 5914 5913 5912 5912 5911 5909 5908 5907 5906 5905 5904 5903 5902 5900 5899 5898 5897 5896 5894 5893 5892 5890 5890 5889 5888 5887 5886 5885 5885 5884 5884 5883 5883 5882 5882 5882 5881 5881 5881 5881 5881 5881 5881 5881
5917 5917 5917 5917 5916 5915 5914 5914 5913 5912 5911 5909 5908 5907 5906 5905 5904 5903 5902 5900 5899 5897 5896 5895 5893 5892 5891 5890 5888 5887 5886 5885 5884 5883 5883 5882 5882 5881 5881 5881 5880 5880 5879 5879 5879 5879 5879 5879 5880
5919 5918 5918 5918 5916 5915 5915 5915 5914 5913 5912 5910 5909 5908 5907 5906 5905 5904 5902 5901 5900 5898 5897 5895 5893 5892 5891 5889 5887 5886 5885 5884 5883 5882 5881 5881 5880 5880 5879 5879 5879 5878 5878 5878 5878 5878 5878 5878 5878
5919 5920 5920 5919 5918 5917 5916 5915 5915 5913 5911 5910 5909 5908 5907 5906 5905 5904 5902 5901 5899 5898 5897 5895 5893 5892 5890 5888 5887 5885 5884 5883 5882 5881 5880 5879 5879 5878 5878 5878 5878 5877 5877 5876 5876 5876 5876 5876 5876
5922 5921 5921 5920 5919 5918 5918 5916 5915 5913 5912 5911 5910 5909 5907 5906 5904 5903 5902 5900 5899 5897 5896 5895 5893 5891 5890 5888 5887 5885 5883 5882 5881 5880 5879 5878 5878 5877 5877 5876 5876 5875 5875 5874 5874 5874 5874 5873 5873
5923 5923 5922 5921 5920 5919 5919 5918 5916 5914 5913 5912 5911 5909 5907 5906 5904 5903 5901 5900 5898 5897 5896 5894 5892 5891 5889 5887 5886 5885 5883 5881 5880 5879 5878 5877 5876 5875 5875 5874 5874 5873 5873 5872 5871 5871 5871 5871 5871
5923 5924 5923 5922 5921 5920 5920 5918 5917 5915 5914 5913 5911 5909 5908 5906 5905 5903 5901 5900 5898 5897 5895 5893 5892 5890 5888 5887 5885 5884 5882 5881 5879 5878 5877 5876 5875 5874 5873 5872 5872 5871 5870 5870 5869 5868 5868 5868 5868
5923 5923 5923 5923 5921 5920 5919 5918 5918 5916 5914 5912 5911 5910 5909 5907 5905 5903 5901 5899 5898 5896 5895 5893 5891 5889 5888 5886 5885 5883 5881 5880 5878 5877 5876 5874 5873 5872 5871 5870 5869 5868 5868 5867 5866 5866 5865 5864 5864
5923 5923 5922 5923 5922 5920 5919 5918 5918 5916 5914 5912 5911 5910 5909 5907 5905 5903 5901 5899 5897 5896 5894 5892 5890 5889 5887 5885 5884 5882 5880 5879 5877 5876 5874 5872 5871 5870 5869 5868 5867 5866 5865 5864 5863 5863 5861 5861 5861
5922 5922 5922 5922 5921 5920 5919 5918 5918 5916 5914 5913 5911 5910 5908 5906 5905 5903 5901 5899 5897 5895 5894 5892 5890 5888 5886 5885 5883 5881 5879 5878 5876 5874 5873 5871 5869 5868 5867 5866 5865 5863 5862 5861 5860 5859 5859 5858 5858
5922 5922 5922 5921 5921 5919 5918 5918 5917 5915 5913 5912 5911 5909 5907 5905 5904 5902 5901 5899 5897 5895 5893 5891 5889 5887 5885 5884 5882 5880 5878 5876 5875 5873 5871 5869 5867 5866 5865 5863 5862 5861 5860 5858 5857 5856 5855 5855 5855
5921 5921 5921 5920 5919 5919 5918 5917 5916 5915 5914 5912 5910 5909 5907 5905 5903 5901 5900 5898 5896 5894 5892 5890 5888 5886 5884 5882 5880 5878 5877 5875 5873 5871 5869 5868 5866 5864 5863 5861 5860 5858 5857 5855 5854 5853 5852 5852 5851
5920 5920 5920 5918 5918 5917 5918 5917 5916 5914 5913 5911 5910 5908 5906 5904 5902 5901 5899 5897 5895 5893 5891 5889 5887 5885 5883 5881 5879 5877 5875 5874 5872 5869 5868 5866 5863 5862 5860 5858 5857 5855 5853 5852 5850 5849 5848 5848 5848
5918 5918 5919 5918 5917 5916 5916 5915 5915 5913 5912 5910 5909 5907 5905 5902 5901 5899 5897 5896 5894 5891 5889 5888 5886 5884 5882 5880 5878 5876 5874 5872 5870 5868 5866 5863 5861 5859 5857 5856 5854 5852 5850 5848 5847 5846 5845 5844 5844
5917 5917 5917 5917 5916 5915 5915 5914 5913 5911 5911 5909 5908 5906 5904 5902 5900 5898 5896 5894 5893 5890 5888 5886 5884 5882 5880 5878 5876 5874 5872 5870 5868 5866 5863 5861 5859 5857 5855 5853 5851 5849 5847 5845 5843 5842 5841 5840 5840
5915 5916 5916 5915 5914 5914 5913 5911 5911 5910 5909 5907 5905 5903 5902 5900 5899 5897 5895 5893 5891 5889 5886 5884 5883 5880 5878 5875 5873 5871 5869 5867 5865 5863 5860 5859 5856 5854 5852 5850 5848 5846 5844 5842 5840 5838 5837 5836 5835
5913 5913 5913 5913 5911 5911 5910 5909 5909 5908 5906 5905 5903 5901 5900 5898 5897 5895 5894 5891 5889 5887 5885 5883 5881 5878 5876 5874 5871 5869 5867 5864 5862 5860 5857 5856 5853 5851 5849 5847 5845 5843 5841 5839 5837 5835 5833 5832 5831
5910 5910 5910 5910 5908 5907 5906 5907 5906 5905 5904 5903 5901 5899 5898 5896 5895 5893 5891 5889 5888 5885 5883 5881 5879 5876 5874 5872 5870 5867 5864 5862 5859 5857 5854 5852 5850 5847 5845 5843 5841 5839 5837 5835 5833 5831 5829 5828 5827
5907 5907 5907 5907 5905 5904 5904 5904 5904 5902 5901 5900 5898 5896 5895 5894 5892 5891 5889 5887 5885 5883 5881 5879 5877 5874 5872 5869 5867 5864 5862 5859 5856 5854 5851 5849 5846 5844 5842 5839 5837 5835 5834 5832 5830 5827 5825 5824 5822
5903 5903 5903 5903 5902 5902 5901 5903 5901 5899 5898 5897 5895 5894 5892 5891 5890 5888 5886 5884 5882 5881 5878 5876 5874 5871 5869 5866 5864 5861 5859 5856 5853 5850 5848 5845 5843 5841 5838 5836 5834 5832 5830 5828 5826 5824 5822 5820 5818
5898 5899 5899 5900 5899 5898 5897 5900 5897 5896 5895 5893 5892 5891 5889 5888 5886 5885 5884 5882 5880 5878 5876 5873 5871 5869 5866 5864 5861 5859 5856 5853 5849 5847 5844 5842 5840 5837 5835 5833 5830 5828 5826 5823 5822 5820 5818 5816 5814